Total_Precipitation_Accumulation
0.66 0.55 0.41 0.38 0.32 0.29 0.26 0.24 0.19 0.15 0.13 0.09 0.09 0.09 0.08 0.12 0.21 0.24 0.33 0.52 0.81 0.86 0.60 0.43 0.32 0.27 0.29 0.30 0.30 0.31 0.34 0.38 0.42 0.43 0.41 0.36 0.38 0.33 0.22 0.17 0.17 0.16 0.15
0.64 0.62 0.52 0.49 0.46 0.42 0.38 0.30 0.22 0.22 0.18 0.11 0.08 0.07 0.07 0.08 0.13 0.18 0.32 0.49 0.59 0.70 0.81 0.72 0.55 0.43 0.34 0.29 0.27 0.25 0.27 0.31 0.34 0.37 0.37 0.34 0.31 0.25 0.19 0.18 0.19 0.17 0.14
0.62 0.65 0.64 0.61 0.57 0.56 0.51 0.41 0.31 0.28 0.22 0.14 0.10 0.07 0.04 0.05 0.06 0.12 0.18 0.29 0.29 0.29 0.48 0.67 0.68 0.59 0.49 0.41 0.31 0.21 0.19 0.22 0.27 0.32 0.35 0.33 0.27 0.21 0.17 0.19 0.20 0.19 0.15
0.66 0.73 0.72 0.71 0.72 0.59 0.53 0.49 0.43 0.37 0.29 0.20 0.15 0.09 0.05 0.05 0.05 0.06 0.08 0.12 0.15 0.15 0.20 0.25 0.30 0.36 0.48 0.53 0.46 0.26 0.17 0.17 0.20 0.25 0.30 0.26 0.20 0.19 0.19 0.21 0.18 0.18 0.17
0.85 0.91 0.92 0.90 0.88 0.83 0.71 0.57 0.50 0.48 0.45 0.36 0.24 0.17 0.09 0.07 0.07 0.06 0.07 0.09 0.10 0.12 0.15 0.10 0.11 0.12 0.16 0.24 0.32 0.32 0.25 0.17 0.15 0.17 0.20 0.18 0.15 0.15 0.16 0.17 0.15 0.15 0.17
1.10 1.19 1.16 1.10 1.10 1.14 1.09 0.84 0.78 0.69 0.59 0.50 0.36 0.27 0.20 0.17 0.14 0.13 0.11 0.10 0.10 0.09 0.11 0.07 0.08 0.07 0.08 0.11 0.17 0.21 0.22 0.18 0.13 0.12 0.14 0.14 0.13 0.12 0.13 0.14 0.13 0.14 0.16
1.42 1.55 1.51 1.48 1.45 1.38 1.28 1.17 1.20 1.10 0.83 0.63 0.66 0.57 0.39 0.25 0.21 0.18 0.15 0.14 0.14 0.13 0.13 0.10 0.09 0.09 0.07 0.07 0.08 0.11 0.15 0.18 0.18 0.16 0.13 0.13 0.12 0.10 0.11 0.13 0.14 0.15 0.18
1.65 1.68 1.84 1.90 1.85 1.89 1.83 1.59 1.63 1.59 1.25 0.93 1.01 1.17 0.88 0.59 0.34 0.23 0.21 0.19 0.18 0.18 0.18 0.13 0.10 0.09 0.09 0.10 0.06 0.06 0.08 0.15 0.23 0.23 0.19 0.15 0.11 0.08 0.08 0.11 0.14 0.15 0.16
1.80 1.82 1.91 2.04 2.03 2.05 2.08 2.08 1.97 1.98 1.74 1.34 1.12 1.23 1.10 0.93 0.69 0.35 0.26 0.28 0.27 0.26 0.25 0.22 0.16 0.14 0.11 0.10 0.09 0.05 0.05 0.07 0.14 0.20 0.19 0.16 0.12 0.08 0.07 0.08 0.12 0.15 0.15
2.01 2.05 2.05 2.13 2.13 2.11 2.14 2.20 2.11 2.12 2.13 1.75 1.45 1.18 0.97 0.90 0.85 0.63 0.40 0.33 0.35 0.31 0.30 0.29 0.24 0.21 0.18 0.15 0.13 0.09 0.06 0.05 0.07 0.13 0.18 0.18 0.15 0.13 0.10 0.09 0.10 0.13 0.17
2.07 2.09 2.14 2.26 2.24 2.16 2.13 2.30 2.29 2.30 2.19 2.07 1.87 1.66 1.46 1.19 0.83 0.81 0.76 0.56 0.44 0.34 0.33 0.34 0.33 0.31 0.28 0.24 0.27 0.23 0.13 0.08 0.06 0.12 0.18 0.22 0.21 0.19 0.17 0.15 0.15 0.18 0.19
2.07 1.96 1.88 2.00 2.03 2.04 2.04 2.17 2.30 2.38 2.32 2.32 2.14 1.81 1.66 1.47 1.15 1.06 0.91 0.74 0.65 0.45 0.37 0.34 0.32 0.33 0.33 0.32 0.34 0.39 0.27 0.18 0.11 0.11 0.16 0.20 0.20 0.19 0.20 0.23 0.23 0.23 0.22
1.90 1.91 1.80 1.78 1.75 1.70 1.73 1.85 1.91 1.96 2.06 2.19 2.08 1.83 1.74 1.50 1.36 1.30 1.15 0.93 0.77 0.50 0.39 0.36 0.32 0.30 0.31 0.32 0.39 0.48 0.33 0.23 0.15 0.12 0.14 0.16 0.17 0.16 0.15 0.18 0.24 0.30 0.32
1.61 1.66 1.65 1.58 1.58 1.63 1.63 1.69 1.71 1.71 1.70 1.76 1.79 1.80 1.80 1.63 1.47 1.32 1.27 1.29 1.10 0.84 0.60 0.45 0.42 0.39 0.37 0.35 0.42 0.44 0.34 0.30 0.21 0.15 0.13 0.14 0.17 0.16 0.15 0.15 0.19 0.25 0.29
1.18 1.23 1.31 1.35 1.38 1.46 1.51 1.62 1.67 1.67 1.60 1.57 1.66 1.71 1.65 1.58 1.50 1.35 1.26 1.25 1.26 1.10 0.94 0.71 0.54 0.46 0.47 0.44 0.46 0.36 0.32 0.34 0.28 0.23 0.20 0.18 0.18 0.18 0.16 0.14 0.12 0.11 0.12
0.82 0.88 0.99 1.11 1.24 1.36 1.45 1.52 1.55 1.61 1.63 1.59 1.64 1.72 1.73 1.74 1.72 1.60 1.45 1.35 1.22 1.17 1.07 0.86 0.63 0.47 0.52 0.49 0.49 0.35 0.32 0.38 0.33 0.30 0.25 0.23 0.21 0.21 0.20 0.15 0.11 0.08 0.06
0.67 0.76 0.80 0.92 1.03 1.13 1.32 1.49 1.52 1.53 1.53 1.51 1.48 1.53 1.63 1.72 1.81 1.79 1.74 1.58 1.41 1.32 1.24 1.06 0.81 0.56 0.54 0.56 0.52 0.40 0.34 0.31 0.31 0.31 0.28 0.26 0.24 0.22 0.23 0.22 0.18 0.14 0.10
0.54 0.61 0.71 0.85 0.96 1.01 1.04 1.14 1.22 1.23 1.24 1.29 1.28 1.26 1.34 1.43 1.54 1.66 1.72 1.67 1.59 1.44 1.36 1.33 1.14 0.83 0.63 0.58 0.55 0.53 0.46 0.40 0.39 0.42 0.38 0.35 0.31 0.27 0.26 0.24 0.22 0.19 0.15
0.55 0.59 0.70 0.81 0.86 0.88 0.91 0.87 0.89 0.96 1.00 1.01 1.06 1.04 1.06 1.13 1.24 1.35 1.43 1.49 1.55 1.56 1.50 1.41 1.31 1.13 0.86 0.71 0.66 0.62 0.58 0.61 0.51 0.47 0.46 0.43 0.40 0.37 0.36 0.33 0.29 0.25 0.20
0.58 0.62 0.75 0.82 0.83 0.77 0.83 0.83 0.80 0.79 0.78 0.76 0.81 0.83 0.86 0.86 0.90 1.02 1.18 1.34 1.47 1.54 1.58 1.54 1.38 1.17 1.03 0.93 0.80 0.75 0.78 0.75 0.69 0.60 0.55 0.51 0.51 0.46 0.42 0.37 0.34 0.30 0.27
0.58 0.64 0.67 0.77 0.81 0.79 0.81 0.85 0.79 0.67 0.64 0.67 0.64 0.56 0.59 0.65 0.64 0.67 0.74 0.99 1.19 1.33 1.43 1.47 1.38 1.17 1.00 0.93 0.84 0.83 0.84 0.85 0.80 0.76 0.71 0.61 0.56 0.51 0.48 0.45 0.38 0.31 0.26
0.47 0.53 0.56 0.72 0.84 0.76 0.87 0.83 0.70 0.59 0.57 0.59 0.56 0.51 0.51 0.56 0.50 0.43 0.44 0.61 0.86 1.01 1.15 1.27 1.30 1.17 1.03 0.93 0.91 0.89 0.83 0.78 0.75 0.68 0.61 0.64 0.60 0.58 0.55 0.51 0.51 0.46 0.40
0.43 0.48 0.52 0.66 0.75 0.84 0.78 0.61 0.62 0.59 0.60 0.60 0.61 0.62 0.58 0.55 0.62 0.51 0.43 0.45 0.53 0.64 0.76 0.94 1.10 1.13 1.18 1.08 0.92 0.82 0.78 0.77 0.75 0.72 0.61 0.57 0.54 0.51 0.50 0.49 0.52 0.50 0.48
0.42 0.46 0.51 0.54 0.61 0.72 0.64 0.49 0.53 0.50 0.59 0.65 0.68 0.72 0.73 0.69 0.65 0.70 0.63 0.65 0.60 0.55 0.63 0.53 0.66 0.95 1.03 1.04 0.96 0.89 0.86 0.78 0.70 0.67 0.59 0.57 0.56 0.50 0.43 0.40 0.42 0.40 0.38
0.47 0.48 0.52 0.54 0.59 0.62 0.56 0.46 0.47 0.53 0.66 0.69 0.66 0.73 0.75 0.68 0.73 0.77 0.83 0.89 0.82 0.68 0.80 0.81 0.72 0.76 0.80 0.79 0.80 0.81 0.82 0.76 0.69 0.63 0.49 0.42 0.43 0.43 0.42 0.42 0.38 0.37 0.34
0.46 0.47 0.46 0.46 0.50 0.52 0.55 0.43 0.51 0.61 0.67 0.68 0.68 0.74 0.88 0.78 0.74 0.72 0.73 0.83 0.84 0.73 0.61 0.64 0.60 0.51 0.44 0.48 0.57 0.61 0.75 0.83 0.79 0.67 0.52 0.41 0.42 0.40 0.39 0.35 0.30 0.30 0.29